Terminal Aerodrome Forecast
Issued by NWS

Home | Current Version | Previous Version | Text Only | Print | Product List | Glossary On
Versions: 1 2 3 4 5 6 7 8 9 10 11 12 13
000
FTUS42 TJSJ 041733
TAFJSJ
TAF
TJSJ 041733Z 0418/0518 07012KT P6SM SCT030
     FM042300 00000KT P6SM VCSH SCT030
     FM051300 08012KT P6SM SCT025=

USA.gov is the U.S. government's official web portal to all federal, state and local government web resources and services.